Back to catalog

FENGYUN 1C DEB

LostSSO
NORAD 31197·DEBRIS·🇨🇳 China

Launched May 10, 1999 from Taiyuan Satellite Launch Center

Loading…

Next Passes (next 24 hours)

TLE

StaleSource: Space-Track

Epoch: Sep 20, 2022, 12:46 UTC

1 31197U 99025BKB 22263.53196343  .00003480  00000-0  16071-2 0  9997
2 31197  99.0547  16.8466 0058296   0.2995 359.8206 14.20723031797349

Track FENGYUN 1C DEB in real time with AllMySat

Download on the App Store